Cosmos 1538 Rocket - Orbit

View from above orbital plane
View from above orbital plane
View from above satellite
View from above satellite

Ground track
Ground track

The orbit data is extracted from the following two-line orbital elements,

1 14760U 84019B   13139.82083713  .00000174  00000-0  69498-4 0   329
2 14760 074.0441 333.0761 0028234 200.5159 288.7741 14.35295630529858
Epoch (UTC): 19 May 2013 19:42:00
Eccentricity: 0.0028234
inclination: 74.0441°
perigee height: 754 km
apogee height: 794 km
right ascension of ascending node: 333.0761°
argument of perigee: 200.5159°
revolutions per day: 14.35295630
mean anomaly at epoch: 288.7741°
orbit number at epoch: 52985

The dashed part of the orbit path shows where the satellite is in the earth's shadow,  

Developed and maintained by Chris Peat, Heavens-Above GmbH. Please read the updated FAQ before sending e-mail. Imprint. DLR